EW2244 Weather Reports


Display with metric or nautical units.
time (UTC)temp
F
wind
direction
speed
MPH
gust
MPH
rain 1hr
in
rain 24hr
in
rain mn
in
humidity
%
barometer
mb
20210225051129 52 283 1.0 5.0 0.00 0.00 0.00 53 1032.7
20210225050151 51 270 1.0 7.0 0.00 0.00 0.00 55 1032.8
20210225045120 52 268 2.0 4.0 0.00 0.00 0.00 53 1032.8
20210225044121 53 280 1.0 6.0 0.00 0.00 0.00 51 1032.7
20210225043131 53 259 2.0 10.0 0.00 0.00 0.00 51 1032.7
20210225042124 53 355 2.0 10.0 0.00 0.00 0.00 51 1032.7
20210225041132 53 302 2.0 6.0 0.00 0.00 0.00 51 1032.7
20210225040120 53 355 3.0 8.0 0.00 0.00 0.00 52 1032.7
20210225035129 53 277 2.0 5.0 0.00 0.00 0.00 52 1032.8
20210225034125 54 291 2.0 11.0 0.00 0.00 0.00 51 1032.8
20210225033333 54 350 1.0 7.0 0.00 0.00 0.00 50 1032.7
20210225032132 54 277 2.0 5.0 0.00 0.00 0.00 51 1032.7
20210225031121 54 288 1.0 6.0 0.00 0.00 0.00 51 1032.8
20210225030130 53 295 3.0 9.0 0.00 0.00 0.00 51 1032.8
20210225025122 54 296 4.0 9.0 0.00 0.00 0.00 51 1032.8
20210225024129 54 349 2.0 8.0 0.00 0.00 0.00 51 1032.9
20210225023128 54 291 1.0 5.0 0.00 0.00 0.00 51 1033.0
20210225022118 54 300 3.0 6.0 0.00 0.00 0.00 51 1033.1
20210225021124 54 280 3.0 8.0 0.00 0.00 0.00 51 1033.2
20210225020138 54 27 1.0 4.0 0.00 0.00 0.00 50 1033.2
20210225015127 54 355 1.0 8.0 0.00 0.00 0.00 50 1033.3
20210225014130 54 273 3.0 9.0 0.00 0.00 0.00 51 1033.4
20210225013229 54 286 5.0 11.0 0.00 0.00 0.00 51 1033.6
20210225012122 54 302 5.0 8.0 0.00 0.00 0.00 51 1033.6
20210225011138 54 265 4.0 10.0 0.00 0.00 0.00 50 1033.7
20210225010141 54 254 2.0 6.0 0.00 0.00 0.00 50 1033.8
20210225005132 54 254 1.0 5.0 0.00 0.00 0.00 50 1033.8
20210225004116 54 291 0.0 4.0 0.00 0.00 0.00 50 1033.9
20210225003240 54 342 2.0 8.0 0.00 0.00 0.00 50 1033.8
20210225002134 54 269 0.0 5.0 0.00 0.00 0.00 50 1033.9
20210225001122 55 271 1.0 3.0 0.00 0.00 0.00 49 1033.9
20210225000132 55 355 2.0 8.0 0.00 0.00 0.00 49 1034.0
20210224235404 55 257 2.0 4.0 0.00 0.00 0.00 49 1034.0
20210224234134 55 306 2.0 5.0 0.00 0.00 0.00 48 1034.0
20210224233122 55 317 1.0 4.0 0.00 0.00 0.00 49 1034.0
20210224232126 55 333 1.0 5.0 0.00 0.00 0.00 49 1034.0
20210224231121 55 311 2.0 8.0 0.00 0.00 0.00 49 1034.0
20210224230130 54 293 1.0 5.0 0.00 0.00 0.00 49 1034.0
20210224225129 55 332 1.0 3.0 0.00 0.00 0.00 48 1034.1
20210224224116 55 268 2.0 4.0 0.00 0.00 0.00 48 1034.1
20210224223130 56 23 1.0 7.0 0.00 0.00 0.00 47 1034.1
20210224222126 56 286 2.0 5.0 0.00 0.00 0.00 46 1034.1
20210224221139 56 277 4.0 9.0 0.00 0.00 0.00 47 1034.1
20210224220122 56 261 3.0 8.0 0.00 0.00 0.00 46 1034.1
20210224215409 57 261 2.0 6.0 0.00 0.00 0.00 45 1034.2
20210224214126 57 273 2.0 7.0 0.00 0.00 0.00 44 1034.1
20210224213145 57 300 4.0 8.0 0.00 0.00 0.00 45 1034.1
20210224212126 57 272 4.0 10.0 0.00 0.00 0.00 45 1034.2
20210224211118 57 292 4.0 9.0 0.00 0.00 0.00 44 1034.2
20210224210120 57 275 3.0 9.0 0.00 0.00 0.00 44 1034.2
20210224205306 57 327 2.0 7.0 0.00 0.00 0.00 43 1034.2
20210224204133 58 276 1.0 8.0 0.00 0.00 0.00 42 1034.1
20210224203135 58 285 3.0 9.0 0.00 0.00 0.00 42 1034.1
20210224202125 58 278 3.0 7.0 0.00 0.00 0.00 41 1034.0
20210224201125 58 275 1.0 7.0 0.00 0.00 0.00 41 1034.1
20210224200135 57 272 3.0 7.0 0.00 0.00 0.00 42 1034.0
20210224195350 57 271 2.0 4.0 0.00 0.00 0.00 42 1034.0
20210224194133 58 271 2.0 6.0 0.00 0.00 0.00 41 1034.1
20210224193118 59 275 1.0 4.0 0.00 0.00 0.00 39 1034.0
20210224192128 60 274 2.0 7.0 0.00 0.00 0.00 37 1034.0
20210224191136 59 267 2.0 7.0 0.00 0.00 0.00 38 1034.0
20210224190121 58 275 4.0 7.0 0.00 0.00 0.00 40 1033.9
20210224185341 58 271 2.0 4.0 0.00 0.00 0.00 41 1034.0
20210224184137 58 271 1.0 3.0 0.00 0.00 0.00 40 1033.9
20210224183126 59 270 2.0 6.0 0.00 0.00 0.00 39 1034.0
20210224182125 59 268 1.0 3.0 0.00 0.00 0.00 40 1034.0
20210224181133 59 277 2.0 4.0 0.00 0.00 0.00 39 1034.0
20210224180125 59 207 1.0 3.0 0.00 0.00 0.00 40 1033.9
20210224175308 59 194 0.0 2.0 0.00 0.00 0.00 43 1033.9
20210224174119 59 194 1.0 2.0 0.00 0.00 0.00 46 1033.8
20210224173127 60 194 0.0 0.0 0.00 0.00 0.00 43 1033.8
20210224172117 60 194 1.0 3.0 0.00 0.00 0.00 43 1033.8
20210224171120 61 105 2.0 2.0 0.00 0.00 0.00 41 1033.8
20210224170127 62 98 1.0 2.0 0.00 0.00 0.00 39 1033.7
20210224165245 63 98 1.0 2.0 0.00 0.00 0.00 38 1033.7
20210224164123 64 98 0.0 1.0 0.00 0.00 0.00 37 1033.7
20210224163127 65 98 0.0 1.0 0.00 0.00 0.00 33 1033.7
20210224162132 65 98 0.0 0.0 0.00 0.00 0.00 31 1033.7
20210224161121 66 98 0.0 1.0 0.00 0.00 0.00 29 1033.7
20210224160140 66 98 0.0 0.0 0.00 0.00 0.00 30 1033.8
20210224155237 66 98 0.0 2.0 0.00 0.00 0.00 28 1033.8
20210224154130 67 98 0.0 1.0 0.00 0.00 0.00 26 1033.9
20210224153131 67 98 0.0 2.0 0.00 0.00 0.00 25 1033.9
20210224152120 67 98 0.0 2.0 0.00 0.00 0.00 26 1034.0
20210224151127 68 98 0.0 3.0 0.00 0.00 0.00 26 1034.1
20210224150118 68 98 0.0 2.0 0.00 0.00 0.00 25 1034.1
20210224145308 68 98 0.0 3.0 0.00 0.00 0.00 25 1034.3
20210224144127 69 98 1.0 3.0 0.00 0.00 0.00 27 1034.3
20210224143133 69 98 0.0 2.0 0.00 0.00 0.00 24 1034.3
20210224142122 69 98 1.0 4.0 0.00 0.00 0.00 24 1034.4
20210224141129 69 94 0.0 2.0 0.00 0.00 0.00 26 1034.4
20210224140130 69 94 1.0 4.0 0.00 0.00 0.00 24 1034.6
20210224135137 69 79 1.0 3.0 0.00 0.00 0.00 25 1034.7
20210224134124 69 92 2.0 4.0 0.00 0.00 0.00 26 1034.8
20210224133141 69 153 0.0 2.0 0.00 0.00 0.00 26 1034.8
20210224132122 69 153 0.0 3.0 0.00 0.00 0.00 28 1034.9
20210224131131 68 155 2.0 3.0 0.00 0.00 0.00 31 1034.9
20210224130119 68 144 3.0 5.0 0.00 0.00 0.00 28 1035.1
20210224125416 68 128 1.0 5.0 0.00 0.00 0.00 32 1035.3
20210224124132 68 120 1.0 4.0 0.00 0.00 0.00 35 1035.4
20210224123135 68 127 1.0 3.0 0.00 0.00 0.00 36 1035.5
20210224122124 67 128 0.0 3.0 0.00 0.00 0.00 36 1035.6
20210224121134 67 129 0.0 6.0 0.00 0.00 0.00 38 1035.7
20210224120121 67 44 0.0 3.0 0.00 0.00 0.00 40 1035.8
20210224115344 66 44 2.0 4.0 0.00 0.00 0.00 38 1035.9
20210224114137 66 13 2.0 4.0 0.00 0.00 0.00 37 1036.1
20210224113123 66 28 1.0 4.0 0.00 0.00 0.00 42 1036.2
20210224112130 65 44 2.0 5.0 0.00 0.00 0.00 40 1036.3
20210224111135 64 23 3.0 4.0 0.00 0.00 0.00 41 1036.5
20210224110121 63 12 2.0 5.0 0.00 0.00 0.00 42 1036.6
20210224105254 63 42 3.0 6.0 0.00 0.00 0.00 43 1036.7
20210224104136 63 277 1.0 4.0 0.00 0.00 0.00 44 1036.7
20210224103125 62 279 2.0 5.0 0.00 0.00 0.00 44 1036.7
20210224102120 62 23 1.0 8.0 0.00 0.00 0.00 46 1036.7
20210224101131 62 28 1.0 5.0 0.00 0.00 0.00 47 1036.7
20210224100125 61 21 4.0 10.0 0.00 0.00 0.00 46 1036.8
20210224095241 60 5 2.0 8.0 0.00 0.00 0.00 46 1036.8
20210224094116 60 331 0.0 2.0 0.00 0.00 0.00 47 1036.8
20210224093127 60 269 2.0 5.0 0.00 0.00 0.00 48 1036.9
20210224092139 60 40 0.0 4.0 0.00 0.00 0.00 50 1036.9
20210224091121 59 40 2.0 5.0 0.00 0.00 0.00 51 1036.9
20210224090133 58 36 1.0 4.0 0.00 0.00 0.00 53 1036.9
20210224085317 57 9 1.0 5.0 0.00 0.00 0.00 53 1036.8
20210224084121 57 55 1.0 3.0 0.00 0.00 0.00 55 1036.7
20210224083130 56 59 1.0 3.0 0.00 0.00 0.00 54 1036.8
20210224082121 56 270 0.0 3.0 0.00 0.00 0.00 54 1036.8
20210224081129 56 323 1.0 4.0 0.00 0.00 0.00 54 1036.8
20210224080134 55 77 0.0 4.0 0.00 0.00 0.00 56 1036.8
20210224075344 55 24 0.0 3.0 0.00 0.00 0.00 55 1036.9
20210224074133 54 237 0.0 2.0 0.00 0.00 0.00 56 1036.9
20210224073117 54 236 0.0 3.0 0.00 0.00 0.00 56 1036.9
20210224072123 53 273 2.0 6.0 0.00 0.00 0.00 58 1036.8
20210224071132 53 281 1.0 5.0 0.00 0.00 0.00 58 1036.8
20210224070126 52 264 1.0 4.0 0.00 0.00 0.00 58 1036.7
20210224065410 52 298 2.0 10.0 0.00 0.00 0.00 59 1036.7
20210224064133 52 273 3.0 7.0 0.00 0.00 0.00 59 1036.6
20210224063141 51 248 3.0 9.0 0.00 0.00 0.00 61 1036.6
20210224062127 50 273 0.0 4.0 0.00 0.00 0.00 62 1036.5
20210224061143 50 248 1.0 2.0 0.00 0.00 0.00 62 1036.5
20210224060141 50 250 1.0 3.0 0.00 0.00 0.00 62 1036.5
20210224055313 51 276 0.0 3.0 0.00 0.00 0.00 61 1036.5
20210224054133 51 296 1.0 4.0 0.00 0.00 0.00 61 1036.5
20210224053126 51 271 1.0 8.0 0.00 0.00 0.00 60 1036.5
20210224052137 51 317 0.0 4.0 0.00 0.00 0.00 60 1036.6